This is the latest recevied weather packets stored in our database for station/object DD6UBW. If no packets are shown the sender has not sent any weather packets the latest 10 day(s).
| Time | Temp. | Humidity | Pressure | Rain* | Wind** | Luminosity | Snow |
|---|---|---|---|---|---|---|---|
| 1777730401 | 26.11° C | 26% | 1018.6 hPa | 0 mm | - | - | - |
| 1777728602 | 26.11° C | 27% | 1018.6 hPa | 0 mm | - | - | - |
| 1777726800 | 26.11° C | 28% | 1018.6 hPa | 0 mm | - | - | - |
| 1777725001 | 25.56° C | 28% | 1019.6 hPa | 0 mm | - | - | - |
| 1777721400 | 24.44° C | 30% | 1020.6 hPa | 0 mm | - | - | - |
| 1777719601 | 24.44° C | 31% | 1020.6 hPa | 0 mm | - | - | - |
| 1777717800 | 24.44° C | 31% | 1020.6 hPa | 0 mm | - | - | - |
| 1777716003 | 23.89° C | 34% | 1021.6 hPa | 0 mm | - | - | - |
| 1777714201 | 23.33° C | 37% | 1021.6 hPa | 0 mm | - | - | - |
| 1777712401 | 22.22° C | 37% | 1021.6 hPa | 0 mm | - | - | - |
| 1777710601 | 22.22° C | 39% | 1022.6 hPa | 0 mm | - | - | - |
| 1777708801 | 21.11° C | 40% | 1022.6 hPa | 0 mm | - | - | - |
| 1777707002 | 20° C | 44% | 1022.6 hPa | 0 mm | - | - | - |
| 1777705201 | 18.33° C | 51% | 1022.6 hPa | 0 mm | - | - | - |
| 1777703400 | 16.11° C | 58% | 1022.6 hPa | 0 mm | - | - | - |
| 1777701600 | 14.44° C | 64% | 1022.6 hPa | 0 mm | - | - | - |
| 1777699804 | 12.22° C | 67% | 1022.6 hPa | 0 mm | - | - | - |
| 1777698000 | 11.67° C | 76% | 1022.6 hPa | 0 mm | - | - | - |
| 1777696201 | 7.22° C | 84% | 1022.6 hPa | 0 mm | - | - | - |
| 1777694401 | 6.67° C | 84% | 1022.6 hPa | 0 mm | - | - | - |
| 1777692601 | 6.67° C | 83% | 1023.6 hPa | 0 mm | - | - | - |
| 1777690801 | 6.67° C | 84% | 1022.6 hPa | 0 mm | - | - | - |
| 1777689000 | 7.22° C | 83% | 1023.6 hPa | 0 mm | - | - | - |
| 1777665603 | 14.44° C | 58% | 1024.6 hPa | 0 mm | - | - | - |
| 1777658403 | 20.56° C | 37% | 1024.6 hPa | 0 mm | - | - | - |
* Rain since midnight (hover to see other rain measurements)
** Current wind speed in m/s (hover to see current wind gust speed)